[[{"header":{"parameterUnit":"m.s-1","parameterCategory":1,"la1":30.2991,"la2":30.254,"lo1":-89.0895,"lo2":-89.0444,"dy":0.0017,"dx":0.0017,"nx":28,"ny":28,"refTime":"2025-02-10T03:00:00:Z","depth":0,"parameterNumber":2,"parameterNumberName":"U-component_of_WINDS"},"data":[0,0,0,0,0,0,0,0,0,0,0,0,0,0,0,0,0,0,0,0,0,0,0,0,0,0,0,0,0,0,0,0,0,0,0,0,0,0,0,0,0,0,0,0,0,0,0,0,0,0,0,0,0,0,0,0,0,0,-2.5703,-2.5703,0,-2.5757,-2.5758,-2.5758,-2.569,-2.5687,-2.5685,-2.5682,-2.5742,-2.5746,-2.575,0,0,0,0,0,0,0,0,0,0,0,0,0,-2.5544,-2.5547,-2.5703,-2.5703,-2.5704,-2.5757,-2.5758,-2.5758,-2.569,-2.5687,-2.5684,-2.5681,-2.5741,-2.5745,-2.575,0,0,0,0,0,0,0,0,0,0,0,0,0,-2.5607,-2.5548,-2.5703,-2.5676,-2.5674,-2.5757,-2.5758,-2.5759,-2.5691,-2.5687,-2.5683,-2.568,-2.5739,-2.5745,-2.5751,-2.5863,0,0,-2.5769,-2.5771,0,0,0,0,0,0,0,0,-2.5604,-2.5613,-2.5679,-2.5678,-2.5676,-2.5713,-2.5724,-2.5794,-2.5692,-2.5685,-2.5682,-2.5678,-2.5736,-2.5742,-2.576,-2.5866,-2.5868,-2.5769,-2.5773,-2.5775,-2.5777,0,0,0,0,0,0,0,-2.56,-2.5611,-2.5724,-2.5681,-2.5679,-2.5663,-2.5668,-2.5737,-2.5731,-2.5685,-2.568,-2.5687,-2.5734,-2.5755,-2.5761,-2.5869,-2.5769,-2.5774,-2.5778,-2.578,-2.6071,-2.6075,0,0,0,0,0,0,-2.5598,-2.5607,-2.5723,-2.5726,-2.563,-2.5669,-2.5674,-2.5705,-2.573,-2.573,-2.5691,-2.5684,-2.5746,-2.5754,-2.5763,-2.5897,-2.5775,-2.5781,-2.5784,-2.6067,-2.6072,-2.6077,0,0,0,0,0,0,-2.5595,-2.5609,-2.572,-2.5665,-2.5678,-2.5676,-2.5711,-2.5708,-2.5728,-2.5734,-2.5733,-2.5712,-2.5744,-2.5755,-2.5839,-2.5898,-2.5784,-2.5789,-2.6062,-2.6069,-2.6074,-2.6166,0,0,0,0,0,0,-2.559,-2.5608,-2.5649,-2.5667,-2.5682,-2.5794,-2.5714,-2.5712,-2.5738,-2.573,-2.5754,-2.5755,-2.5742,-2.583,-2.5845,-2.5904,-2.5794,-2.6057,-2.6065,-2.6072,-2.6158,-2.6175,-2.6189,0,0,0,0,0,-2.5585,-2.5674,-2.5652,-2.5666,-2.5733,-2.5798,-2.5806,-2.5788,-2.5743,-2.5786,-2.579,-2.5754,-2.5889,-2.5839,-2.5855,-2.5918,-2.6053,-2.6063,-2.6072,-2.6151,-2.6171,-2.6189,0,0,0,0,0,0,-2.5665,-2.5675,-2.5651,-2.5748,-2.5772,-2.5786,-2.5839,-2.5811,-2.5849,-2.584,-2.5818,-2.5824,-2.5914,-2.5923,-2.5868,-2.6028,-2.5964,-2.5977,-2.6019,-2.6038,-2.6054,-2.605,-2.5798,0,0,0,0,0,-2.5693,-2.5743,-2.575,-2.5835,-2.5848,-2.5842,-2.5869,-2.5853,-2.5878,-2.5888,-2.5898,-2.5925,-2.5973,-2.6006,-2.6051,-2.6158,-2.6164,-2.6209,-2.6225,-2.6238,-2.625,-2.6309,-2.633,-2.6107,-2.6107,-2.6107,0,0,-2.5753,-2.5765,-2.5798,-2.5851,-2.5868,-2.5923,-2.5851,-2.5911,-2.5951,-2.5898,-2.5978,-2.5986,-2.6015,-2.6111,-2.6154,-2.6123,-2.6312,-2.625,-2.626,-2.6265,-2.6321,-2.6342,-2.6361,-2.6114,-2.6113,-2.6112,0,0,-2.5891,-2.5904,-2.5977,-2.5995,-2.6021,-2.6016,-2.6034,-2.6052,-2.6055,-2.6135,-2.6096,-2.6145,-2.6228,-2.6251,-2.6273,-2.642,-2.6389,-2.6435,-2.6518,-2.6576,-2.6594,-2.6609,-2.6664,-2.6683,-2.6447,-2.6447,-2.6447,0,-2.5962,-2.6041,-2.6018,-2.6081,-2.6106,-2.6059,-2.6134,-2.6153,-2.6193,-2.6213,-2.6176,-2.6281,-2.6296,-2.6398,-2.6434,-2.6453,-2.6474,-2.6433,-2.6593,-2.6608,-2.6622,-2.6674,-2.6694,-2.6452,-2.6452,-2.6451,-2.6451,0,-2.6129,-2.6184,-2.624,-2.6279,-2.6311,-2.6379,-2.6368,-2.6403,-2.6384,-2.6384,-2.6467,-2.6484,-2.6532,-2.6555,-2.6538,-2.6655,-2.6635,-2.6596,-2.6531,-2.665,-2.6698,-2.6717,-2.646,-2.6458,-2.6457,-2.6455,0,0,-2.6319,-2.6344,-2.6366,-2.6383,-2.6409,-2.6452,-2.6519,-2.6565,-2.6597,-2.6626,-2.6683,-2.6755,-2.672,-2.6745,-2.673,-2.6781,-2.6899,-2.6736,-2.6736,-2.6767,-2.7032,-2.7063,-2.7086,-2.6877,-2.6881,-2.6884,-2.703,0,-2.6458,-2.6573,-2.6554,-2.6666,-2.6718,-2.6675,-2.6733,-2.6756,-2.6758,-2.6803,-2.6805,-2.6858,-2.6805,-2.6821,-2.6869,-2.6874,-2.6952,-2.6863,-2.6933,-2.6936,-2.6929,-2.7111,-2.7143,-2.728,-2.7049,-2.7052,-2.7054,0,-2.6635,-2.6671,-2.6788,-2.6806,-2.6828,-2.6881,-2.6922,-2.6965,-2.6991,-2.6989,-2.7018,-2.6994,-2.7063,-2.6995,-2.7091,-2.7031,-2.7059,-2.7066,-2.7071,-2.7078,-2.7003,-2.7125,-2.7323,-2.7345,-2.7083,-2.7081,-2.7079,0,-2.6765,-2.6842,-2.6922,-2.6938,-2.6961,-2.7,-2.7012,-2.7034,-2.7063,-2.71,-2.7119,-2.7164,-2.7189,-2.7225,-2.7214,-2.7166,-2.7313,-2.7245,-2.7315,-2.7316,-2.735,-2.7348,-2.7558,-2.7365,-2.7364,-2.7364,-2.7363,0,-2.6923,-2.6997,-2.698,-2.703,-2.7112,-2.7091,-2.7173,-2.718,-2.72,-2.7251,-2.7216,-2.7265,-2.7247,-2.7296,-2.7288,-2.737,-2.7381,-2.7383,-2.738,-2.7387,-2.7388,-2.7406,-2.7397,-2.7369,-2.7368,-2.7367,-2.7366,0,-2.7082,-2.7074,-2.7159,-2.7174,-2.7179,-2.7239,-2.7253,-2.7301,-2.7299,-2.7365,-2.7379,-2.7377,-2.7433,-2.7425,-2.7488,-2.7483,-2.7585,-2.757,-2.7577,-2.7574,-2.7646,-2.764,-2.7876,-2.7907,-2.7692,-2.7694,-2.7696,0,-2.7185,-2.7241,-2.7261,-2.7293,-2.7307,-2.7358,-2.7388,-2.7369,-2.7402,-2.7436,-2.748,-2.7532,-2.7573,-2.7665,-2.7671,-2.7719,-2.7706,-2.7785,-2.7713,-2.7719,-2.771,-2.7707,-2.7714,-2.78,-2.7803,-2.7805,-2.7806,0,-2.7368,-2.7361,-2.7405,-2.7448,-2.7484,-2.7517,-2.7546,-2.7574,-2.7559,-2.7597,-2.7653,-2.7685,-2.7749,-2.7802,-2.7847,-2.7861,-2.7833,-2.7829,-2.7848,-2.7857,-2.7859,-2.7861,-2.7618,-2.7824,-2.7822,-2.7821,-2.782,-2.7819,-2.7504,-2.7552,-2.7574,-2.7624,-2.7644,-2.7673,-2.7719,-2.7723,-2.7769,-2.7818,-2.7805,-2.7869,-2.7895,-2.7953,-2.7971,-2.8022,-2.7994,-2.8021,-2.8028,-2.8036,-2.8045,-2.7849,-2.803,-2.803,-2.8029,-2.8029,-2.8029,0,-2.7687,-2.7699,-2.7745,-2.7788,-2.7828,-2.7795,-2.7826,-2.7862,-2.7919,-2.7945,-2.7986,-2.8051,-2.8103,-2.8113,-2.8162,-2.8202,-2.819,-2.8216,-2.8214,-2.8218,-2.8067,-2.8047,-2.8224,-2.8224,-2.8224,-2.8224,-2.8224,-2.8224,-2.7787,-2.7868,-2.7864,-2.7954,-2.7966,-2.8028,-2.8049,-2.8076,-2.8097,-2.8171,-2.8214,-2.8219,-2.8239,-2.829,-2.8337,-2.8338,-2.8359,-2.8391,-2.8388,-2.8247,-2.8228,-2.8209,-2.819,-2.8395,-2.8395,-2.8534,-2.8535,-2.8536]},{"header":{"parameterUnit":"m.s-1","parameterCategory":1,"la1":30.2991,"la2":30.254,"lo1":-89.0895,"lo2":-89.0444,"dy":0.0017,"dx":0.0017,"nx":28,"ny":28,"refTime":"2025-02-10T03:00:00:Z","depth":0,"parameterNumber":3,"parameterNumberName":"V-component_of_WINDS"},"data":[0,0,0,0,0,0,0,0,0,0,0,0,0,0,0,0,0,0,0,0,0,0,0,0,0,0,0,0,0,0,0,0,0,0,0,0,0,0,0,0,0,0,0,0,0,0,0,0,0,0,0,0,0,0,0,0,0,0,-3.0037,-3.0037,0,-3.0046,-3.0046,-3.0046,-3.0017,-3.0017,-3.0016,-3.0015,-3.0023,-3.0024,-3.0025,0,0,0,0,0,0,0,0,0,0,0,0,0,-2.9994,-2.9995,-3.0037,-3.0037,-3.0037,-3.0046,-3.0046,-3.0046,-3.0018,-3.0017,-3.0016,-3.0015,-3.0023,-3.0024,-3.0025,0,0,0,0,0,0,0,0,0,0,0,0,0,-3.0009,-2.9995,-3.0037,-3.0024,-3.0023,-3.0046,-3.0046,-3.0046,-3.0018,-3.0017,-3.0015,-3.0014,-3.0022,-3.0024,-3.0025,-3.006,0,0,-3.003,-3.003,0,0,0,0,0,0,0,0,-3.0008,-3.001,-3.0026,-3.0025,-3.0024,-3.0029,-3.0034,-3.0051,-3.0018,-3.002,-3.0015,-3.0013,-3.0026,-3.0027,-3.0031,-3.0061,-3.0061,-3.003,-3.0031,-3.0031,-3.0032,0,0,0,0,0,0,0,-3.0007,-3.001,-3.004,-3.0026,-3.0025,-3.0017,-3.0018,-3.0037,-3.003,-3.002,-3.0018,-3.0019,-3.0025,-3.003,-3.0031,-3.0061,-3.003,-3.0031,-3.0032,-3.0033,-3.0119,-3.012,0,0,0,0,0,0,-3.0008,-3.0009,-3.004,-3.0041,-3.0013,-3.0019,-3.002,-3.0029,-3.003,-3.0029,-3.002,-3.0018,-3.0028,-3.003,-3.0032,-3.0073,-3.0031,-3.0033,-3.0034,-3.0117,-3.0119,-3.0121,0,0,0,0,0,0,-3.0007,-3.0011,-3.004,-3.0024,-3.0027,-3.0021,-3.0031,-3.003,-3.0035,-3.003,-3.0029,-3.0027,-3.0027,-3.003,-3.0053,-3.0072,-3.0034,-3.0035,-3.0116,-3.0118,-3.012,-3.0155,0,0,0,0,0,0,-3.0006,-3.0011,-3.0024,-3.0025,-3.0028,-3.0062,-3.0033,-3.0031,-3.0037,-3.0034,-3.0036,-3.0035,-3.0026,-3.0051,-3.0055,-3.0074,-3.0036,-3.0114,-3.0117,-3.0119,-3.0152,-3.0158,-3.0163,0,0,0,0,0,-3.0004,-3.0034,-3.0025,-3.0029,-3.0045,-3.0063,-3.0065,-3.0055,-3.0039,-3.0053,-3.005,-3.0035,-3.007,-3.0054,-3.0058,-3.0078,-3.0113,-3.0116,-3.0119,-3.015,-3.0157,-3.0163,0,0,0,0,0,0,-3.0036,-3.0034,-3.0024,-3.0055,-3.0059,-3.0058,-3.0075,-3.0063,-3.0072,-3.0069,-3.0056,-3.0056,-3.0082,-3.0082,-3.0064,-3.0111,-3.0088,-3.0092,-3.011,-3.0117,-3.0123,-3.0122,-3.0037,0,0,0,0,0,-3.0046,-3.0061,-3.0058,-3.0085,-3.0088,-3.0081,-3.0088,-3.008,-3.0084,-3.0086,-3.0085,-3.0089,-3.0101,-3.0109,-3.012,-3.0152,-3.0152,-3.0167,-3.0173,-3.0177,-3.0181,-3.0198,-3.0205,-3.0131,-3.0131,-3.0131,0,0,-3.0068,-3.0068,-3.0079,-3.0092,-3.0094,-3.0109,-3.0083,-3.01,-3.0111,-3.0089,-3.0111,-3.011,-3.0114,-3.0142,-3.0154,-3.0143,-3.0201,-3.0181,-3.0185,-3.0186,-3.0202,-3.0209,-3.0215,-3.0133,-3.0132,-3.0132,0,0,-3.0115,-3.0117,-3.014,-3.0143,-3.0147,-3.0143,-3.0148,-3.0149,-3.0147,-3.017,-3.0153,-3.0165,-3.0186,-3.019,-3.0194,-3.0242,-3.0229,-3.0246,-3.0275,-3.0291,-3.0297,-3.0302,-3.0319,-3.0325,-3.0249,-3.0249,-3.025,0,-3.0141,-3.0164,-3.0153,-3.0172,-3.0178,-3.0158,-3.018,-3.0184,-3.0191,-3.0196,-3.0183,-3.0208,-3.0209,-3.0238,-3.0249,-3.0254,-3.0259,-3.0246,-3.0297,-3.0302,-3.0306,-3.0323,-3.0329,-3.0252,-3.0251,-3.0251,-3.0251,0,-3.0196,-3.0212,-3.023,-3.0238,-3.0246,-3.0266,-3.0258,-3.0267,-3.0258,-3.0254,-3.0277,-3.0278,-3.0288,-3.0294,-3.0286,-3.0321,-3.0314,-3.0299,-3.0276,-3.0316,-3.0331,-3.0337,-3.0255,-3.0254,-3.0253,-3.0253,0,0,-3.0264,-3.0265,-3.0272,-3.0275,-3.0278,-3.029,-3.0309,-3.032,-3.0328,-3.0333,-3.0349,-3.0367,-3.0353,-3.0358,-3.0349,-3.0364,-3.0402,-3.0347,-3.0347,-3.0357,-3.0441,-3.0452,-3.046,-3.0393,-3.0394,-3.0395,-3.0441,0,-3.0311,-3.0344,-3.0334,-3.0368,-3.0382,-3.0363,-3.038,-3.0383,-3.038,-3.0391,-3.0388,-3.0401,-3.0381,-3.0384,-3.0398,-3.0394,-3.0418,-3.0391,-3.0407,-3.0408,-3.0407,-3.0467,-3.0479,-3.0523,-3.0446,-3.0447,-3.0448,0,-3.037,-3.0378,-3.0413,-3.0413,-3.0419,-3.0434,-3.0442,-3.0453,-3.0457,-3.0453,-3.0459,-3.0447,-3.0465,-3.0442,-3.0467,-3.0448,-3.0454,-3.0454,-3.0455,-3.0456,-3.043,-3.047,-3.0536,-3.0543,-3.0457,-3.0456,-3.0456,0,-3.0416,-3.0435,-3.0459,-3.0462,-3.0463,-3.0474,-3.0475,-3.0477,-3.0483,-3.049,-3.0495,-3.0504,-3.0509,-3.0516,-3.0507,-3.0491,-3.0533,-3.0509,-3.0531,-3.0531,-3.0541,-3.054,-3.0609,-3.0544,-3.0544,-3.0544,-3.0544,0,-3.0469,-3.0491,-3.0479,-3.0494,-3.0518,-3.0506,-3.053,-3.0528,-3.053,-3.0543,-3.0527,-3.054,-3.0527,-3.0539,-3.0532,-3.0553,-3.0556,-3.0553,-3.0551,-3.0555,-3.0555,-3.0559,-3.0556,-3.0546,-3.0545,-3.0545,-3.0545,0,-3.0525,-3.0518,-3.0542,-3.0541,-3.0541,-3.0558,-3.0557,-3.057,-3.0565,-3.0583,-3.0586,-3.0579,-3.0592,-3.0583,-3.0596,-3.0591,-3.0619,-3.0613,-3.0619,-3.0617,-3.0639,-3.0637,-3.0712,-3.0721,-3.0651,-3.0652,-3.0652,0,-3.0559,-3.0576,-3.0576,-3.0584,-3.0586,-3.0599,-3.0606,-3.0595,-3.0602,-3.0607,-3.0619,-3.063,-3.0639,-3.066,-3.0656,-3.0665,-3.0659,-3.0685,-3.066,-3.0664,-3.066,-3.0659,-3.066,-3.069,-3.0691,-3.0691,-3.0692,0,-3.0621,-3.0617,-3.0628,-3.0637,-3.0645,-3.0652,-3.0657,-3.0665,-3.0653,-3.0662,-3.0675,-3.0682,-3.0695,-3.0706,-3.0714,-3.0714,-3.0701,-3.0699,-3.0705,-3.0709,-3.0712,-3.0711,-3.0632,-3.0698,-3.0697,-3.0697,-3.0697,-3.0696,-3.0668,-3.0681,-3.0684,-3.0696,-3.0699,-3.0704,-3.0716,-3.0713,-3.0723,-3.0733,-3.0726,-3.0741,-3.0743,-3.0752,-3.0754,-3.0766,-3.0755,-3.0763,-3.0765,-3.0768,-3.0771,-3.071,-3.0767,-3.0767,-3.0767,-3.0767,-3.0766,0,-3.0729,-3.0729,-3.0741,-3.0749,-3.0758,-3.0745,-3.075,-3.0759,-3.0772,-3.0775,-3.0784,-3.0799,-3.081,-3.0806,-3.0816,-3.0825,-3.082,-3.0828,-3.0828,-3.0828,-3.078,-3.0774,-3.0833,-3.0833,-3.0833,-3.0833,-3.0833,-3.0833,-3.0762,-3.0785,-3.078,-3.0804,-3.0804,-3.0819,-3.0823,-3.0827,-3.083,-3.0847,-3.0856,-3.0853,-3.0854,-3.0863,-3.0872,-3.0871,-3.0875,-3.0886,-3.0883,-3.0838,-3.0831,-3.0825,-3.082,-3.0887,-3.0887,-3.093,-3.0931,-3.0931]}]]